TimeEDT,TemperatureF,Dew PointF,Humidity,Sea Level PressureIn,VisibilityMPH,Wind Direction,Wind SpeedMPH,Gust SpeedMPH,PrecipitationIn,Events,Conditions,WindDirDegrees,DateUTC
12:54 AM,54.0,51.1,90,29.94,7.0,NNE,6.9,-,N/A,,Scattered Clouds,20,2012-10-28 04:54:00
1:54 AM,55.0,52.0,89,29.93,7.0,NNE,8.1,-,N/A,,Mostly Cloudy,20,2012-10-28 05:54:00
2:54 AM,55.0,52.0,89,29.92,8.0,NNE,9.2,-,N/A,,Scattered Clouds,20,2012-10-28 06:54:00
3:54 AM,55.0,51.1,86,29.91,10.0,NE,6.9,-,N/A,,Partly Cloudy,50,2012-10-28 07:54:00
4:54 AM,55.9,52.0,87,29.91,10.0,NE,9.2,-,N/A,,Overcast,40,2012-10-28 08:54:00
5:54 AM,55.0,51.1,86,29.91,10.0,NNE,11.5,-,N/A,,Scattered Clouds,20,2012-10-28 09:54:00
6:54 AM,55.0,50.0,83,29.90,10.0,NNE,9.2,-,N/A,,Clear,30,2012-10-28 10:54:00
7:54 AM,55.0,48.9,80,29.91,10.0,NNE,8.1,-,N/A,,Clear,20,2012-10-28 11:54:00
9:54 AM,55.0,42.1,62,29.91,10.0,NE,12.7,-,N/A,,Clear,50,2012-10-28 13:54:00
10:54 AM,55.0,41.0,59,29.91,10.0,ENE,12.7,21.9,N/A,,Clear,60,2012-10-28 14:54:00
11:33 AM,55.4,42.8,63,29.90,10.0,NE,12.7,-,N/A,,Overcast,40,2012-10-28 15:33:00
11:54 AM,55.9,43.0,62,29.90,10.0,NE,15.0,19.6,N/A,,Overcast,40,2012-10-28 15:54:00
12:50 PM,57.2,46.4,67,29.86,10.0,NE,12.7,-,N/A,,Overcast,50,2012-10-28 16:50:00
12:54 PM,57.0,46.0,67,29.86,10.0,NE,13.8,-,N/A,,Overcast,50,2012-10-28 16:54:00
1:08 PM,57.2,46.4,67,29.85,10.0,NE,10.4,19.6,N/A,,Overcast,50,2012-10-28 17:08:00
1:54 PM,57.0,46.0,67,29.83,10.0,ENE,16.1,21.9,N/A,,Overcast,70,2012-10-28 17:54:00
2:35 PM,57.2,46.4,67,29.81,10.0,ENE,15.0,21.9,N/A,,Overcast,60,2012-10-28 18:35:00
2:54 PM,57.0,46.0,67,29.79,10.0,NE,18.4,24.2,N/A,,Overcast,40,2012-10-28 18:54:00
3:47 PM,57.2,46.4,67,29.80,10.0,NE,12.7,25.3,N/A,,Overcast,50,2012-10-28 19:47:00
3:54 PM,57.0,46.0,67,29.81,10.0,NE,13.8,-,N/A,,Overcast,40,2012-10-28 19:54:00
4:54 PM,55.9,46.9,72,29.81,10.0,NE,13.8,17.3,N/A,,Overcast,40,2012-10-28 20:54:00
5:18 PM,55.4,46.4,72,29.80,10.0,NE,12.7,18.4,N/A,,Overcast,40,2012-10-28 21:18:00
5:29 PM,55.4,46.4,72,29.80,10.0,NE,12.7,-,N/A,,Overcast,50,2012-10-28 21:29:00
5:54 PM,55.9,46.0,69,29.80,10.0,NE,12.7,-,N/A,,Overcast,40,2012-10-28 21:54:00
6:21 PM,55.4,46.4,72,29.81,10.0,NE,11.5,-,N/A,,Unknown,40,2012-10-28 22:21:00
6:54 PM,55.9,46.0,69,29.80,10.0,NE,12.7,-,N/A,,Overcast,40,2012-10-28 22:54:00
7:11 PM,55.4,46.4,72,29.79,10.0,NNE,12.7,20.7,N/A,,Overcast,30,2012-10-28 23:11:00
7:25 PM,55.4,46.4,72,29.79,10.0,NNE,15.0,-,N/A,,Overcast,20,2012-10-28 23:25:00
7:50 PM,55.4,46.4,72,29.78,10.0,NE,15.0,23.0,N/A,,Overcast,40,2012-10-28 23:50:00
7:54 PM,55.0,46.0,72,29.78,10.0,NNE,16.1,21.9,N/A,,Overcast,30,2012-10-28 23:54:00
8:54 PM,55.0,46.0,72,29.77,10.0,NNE,13.8,-,N/A,,Overcast,30,2012-10-29 00:54:00
9:54 PM,55.0,46.0,72,29.75,10.0,NE,12.7,-,N/A,,Overcast,40,2012-10-29 01:54:00
10:07 PM,55.4,46.4,72,29.75,10.0,NNE,13.8,-,N/A,,Overcast,30,2012-10-29 02:07:00
10:54 PM,55.0,45.0,69,29.74,10.0,NE,13.8,23.0,N/A,,Overcast,40,2012-10-29 02:54:00
11:03 PM,55.4,44.6,67,29.73,10.0,NNE,9.2,20.7,N/A,,Overcast,30,2012-10-29 03:03:00
11:15 PM,53.6,44.6,72,29.72,10.0,NE,15.0,20.7,N/A,,Overcast,50,2012-10-29 03:15:00
11:25 PM,53.6,44.6,72,29.72,10.0,NE,9.2,20.7,N/A,,Overcast,50,2012-10-29 03:25:00
11:54 PM,54.0,44.1,69,29.72,10.0,NE,15.0,21.9,N/A,,Overcast,40,2012-10-29 03:54:00